Change the Weather History Date:

Wednesday, March 19, 2014

  Actual Average Record
Temperature  
Mean Temperature 38 °F -  
Max Temperature 52 °F 49 °F 77 °F (1976)
Min Temperature 23 °F 26 °F 0 °F (1965)
Degree Days  
Heating Degree Days 28    
Moisture  
Dew Point 26 °F    
Average Humidity 68    
Maximum Humidity 93    
Minimum Humidity 36    
Precipitation  
Precipitation 0.01 in - - ()
Sea Level Pressure  
Sea Level Pressure 30.06 in    
Wind  
Wind Speed 11 mph (WNW)    
Max Wind Speed 18 mph    
Max Gust Speed 25 mph    
Visibility 10 miles    
Events      
Averages and records for this station are not official NWS values.
T = Trace of Precipitation, MM = Missing Value Source: NWS Daily Summary

Daily Weather History Graph

Daily Weather History Graph

Search for Another Location

Airport or City:

Trip Planner

Search our weather history database for the weather conditions in past years. The results will help you decide how hot, cold, wet, or windy it might be!

Date:

Astronomy

Mar. 19, 2014 Rise Set
Actual Time 7:42 AM CDT 7:48 PM CDT
Civil Twilight 7:15 AM CDT 8:15 PM CDT
Nautical Twilight 6:43 AM CDT 8:47 PM CDT
Astronomical Twilight 6:11 AM CDT 9:19 PM CDT
Moon 11:09 PM CDT (3/19) 9:08 AM CDT (3/19)
Length of Visible Light 13h 00m
Length of Day
12h 06m
Waning Gibbous, 91% of the Moon is Illuminated
Mar 19
Waning Gibbous
Mar 23
Last Quarter
Mar 30
New
Apr 7
First Quarter
Apr 15
Full

Hourly Weather History & Observations

Time (CDT) Temp. Windchill Dew Point Humidity Pressure Visibility Wind Dir Wind Speed Gust Speed Precip Events Conditions
12:15 AM 32.2 °F 21.1 °F 28.0 °F 85% 29.95 in 10.0 mi NNW 17.3 mph - N/A   Mostly Cloudy
12:35 AM 32.4 °F 21.3 °F 28.0 °F 84% 29.96 in 10.0 mi North 17.3 mph 23.0 mph N/A   Mostly Cloudy
12:55 AM 32.9 °F 22.0 °F 28.2 °F 83% 29.97 in 10.0 mi NNW 17.3 mph 23.0 mph N/A   Mostly Cloudy
1:15 AM 33.3 °F 22.1 °F 28.2 °F 82% 29.97 in 10.0 mi NNW 18.4 mph 25.3 mph N/A   Mostly Cloudy
1:35 AM 32.0 °F 21.6 °F 27.5 °F 83% 29.98 in 10.0 mi NNW 15.0 mph - N/A   Scattered Clouds
1:55 AM 32.0 °F 21.6 °F 27.3 °F 83% 29.98 in 10.0 mi NNW 15.0 mph 23.0 mph N/A   Clear
2:15 AM 31.1 °F 21.9 °F 26.6 °F 83% 29.99 in 10.0 mi NNW 11.5 mph 17.3 mph N/A   Clear
2:35 AM 30.7 °F 22.0 °F 26.6 °F 85% 30.00 in 10.0 mi NNW 10.4 mph - N/A   Clear
2:55 AM 29.8 °F 20.3 °F 26.1 °F 86% 30.00 in 10.0 mi NNW 11.5 mph - N/A   Clear
3:15 AM 30.2 °F 21.3 °F 26.2 °F 85% 30.01 in 10.0 mi NNW 10.4 mph - N/A   Clear
3:35 AM 29.5 °F 21.1 °F 25.5 °F 85% 30.02 in 10.0 mi NW 9.2 mph - N/A   Clear
3:55 AM 28.2 °F 19.5 °F 25.3 °F 89% 30.02 in 10.0 mi NW 9.2 mph - N/A   Clear
4:15 AM 27.9 °F 19.1 °F 24.6 °F 88% 30.02 in 10.0 mi NNW 9.2 mph - N/A   Clear
4:35 AM 25.0 °F 16.3 °F 21.6 °F 87% 30.01 in 10.0 mi NW 8.1 mph - N/A   Clear
4:55 AM 24.3 °F 16.3 °F 21.7 °F 90% 30.02 in 10.0 mi WNW 6.9 mph - N/A   Clear
5:15 AM 23.0 °F 15.8 °F 20.7 °F 91% 30.04 in 7.0 mi West 5.8 mph - N/A   Clear
5:35 AM 25.2 °F 15.7 °F 23.4 °F 93% 30.05 in 7.0 mi West 9.2 mph - N/A   Clear
5:55 AM 25.2 °F 15.7 °F 22.6 °F 90% 30.05 in 10.0 mi West 9.2 mph - N/A   Clear
6:15 AM 25.0 °F 17.1 °F 22.8 °F 91% 30.05 in 7.0 mi WNW 6.9 mph - N/A   Clear
6:35 AM 24.4 °F 14.9 °F 22.5 °F 92% 30.05 in 7.0 mi WNW 9.2 mph - N/A   Clear
6:55 AM 23.7 °F 14.7 °F 21.7 °F 92% 30.06 in 7.0 mi WNW 8.1 mph - N/A   Clear
7:10 AM 24.4 °F 15.6 °F 22.5 °F 92% 30.07 in 7.0 mi West 8.1 mph - N/A   Clear
7:35 AM 25.0 °F 16.3 °F 22.8 °F 91% 30.07 in 10.0 mi West 8.1 mph - N/A   Clear
7:55 AM 25.2 °F 16.5 °F 22.6 °F 90% 30.08 in 10.0 mi West 8.1 mph - N/A   Clear
8:15 AM 25.7 °F 16.4 °F 23.0 °F 89% 30.09 in 10.0 mi West 9.2 mph - N/A   Clear
8:35 AM 26.6 °F 18.2 °F 23.4 °F 88% 30.09 in 10.0 mi WNW 8.1 mph - N/A   Clear
8:55 AM 26.6 °F 18.2 °F 22.8 °F 86% 30.10 in 10.0 mi West 8.1 mph - N/A   Clear
9:15 AM 27.3 °F 19.1 °F 23.2 °F 84% 30.10 in 10.0 mi WNW 8.1 mph - N/A   Clear
9:35 AM 28.6 °F 20.7 °F 23.7 °F 82% 30.11 in 10.0 mi WNW 8.1 mph - N/A   Clear
9:55 AM 28.9 °F 21.9 °F 23.9 °F 81% 30.12 in 10.0 mi WNW 6.9 mph - N/A   Clear
10:15 AM 30.9 °F 24.3 °F 25.0 °F 79% 30.13 in 10.0 mi WNW 6.9 mph - N/A   Clear
10:35 AM 32.7 °F 27.3 °F 26.4 °F 78% 30.13 in 10.0 mi WNW 5.8 mph - N/A   Clear
10:55 AM 34.2 °F 27.5 °F 27.3 °F 76% 30.14 in 10.0 mi West 8.1 mph - N/A   Clear
11:15 AM 35.8 °F 28.8 °F 27.7 °F 72% 30.14 in 10.0 mi West 9.2 mph - N/A   Clear
11:35 AM 37.0 °F 31.0 °F 28.6 °F 71% 30.14 in 10.0 mi West 8.1 mph - N/A   Clear
11:55 AM 37.4 °F 30.8 °F 28.9 °F 71% 30.15 in 10.0 mi West 9.2 mph - N/A   Clear
12:15 PM 37.8 °F 30.7 °F 29.7 °F 73% 30.14 in 10.0 mi West 10.4 mph - N/A   Clear
12:35 PM 39.7 °F 33.2 °F 30.4 °F 69% 30.14 in 10.0 mi West 10.4 mph - N/A   Clear
12:55 PM 41.5 °F 35.9 °F 31.3 °F 67% 30.14 in 10.0 mi West 9.2 mph - N/A   Clear
1:15 PM 42.4 °F 36.1 °F 32.4 °F 68% 30.13 in 10.0 mi WSW 11.5 mph - N/A   Clear
1:35 PM 43.5 °F 36.7 °F 32.2 °F 64% 30.13 in 10.0 mi West 13.8 mph 17.3 mph N/A   Clear
1:55 PM 44.6 °F 39.2 °F 32.2 °F 62% 30.13 in 10.0 mi WSW 10.4 mph - N/A   Clear
2:15 PM 46.0 °F 39.9 °F 31.8 °F 58% 30.11 in 10.0 mi West 13.8 mph - N/A   Clear
2:35 PM 47.5 °F - 30.6 °F 52% 30.10 in 10.0 mi WSW 10.4 mph - N/A   Clear
2:55 PM 48.4 °F - 28.8 °F 47% 30.09 in 10.0 mi WNW 12.7 mph 18.4 mph N/A   Clear
3:15 PM 49.5 °F - 26.8 °F 41% 30.08 in 10.0 mi West 13.8 mph 20.7 mph N/A   Clear
3:35 PM 50.0 °F - 26.4 °F 40% 30.07 in 10.0 mi West 13.8 mph 21.9 mph N/A   Clear
3:55 PM 50.9 °F - 26.2 °F 38% 30.07 in 10.0 mi WNW 11.5 mph - N/A   Clear
4:15 PM 51.6 °F - 25.3 °F 36% 30.07 in 10.0 mi WNW 15.0 mph 23.0 mph N/A   Clear
4:35 PM 52.0 °F - 27.3 °F 39% 30.06 in 10.0 mi West 15.0 mph 23.0 mph N/A   Clear
4:55 PM 52.2 °F - 27.7 °F 39% 30.05 in 10.0 mi West 10.4 mph - N/A   Clear
5:15 PM 52.2 °F - 27.3 °F 38% 30.05 in 10.0 mi West 13.8 mph 18.4 mph N/A   Clear
5:35 PM 52.7 °F - 26.6 °F 36% 30.04 in 10.0 mi West 10.4 mph 16.1 mph N/A   Clear
5:55 PM 50.9 °F - 27.3 °F 40% 30.04 in 10.0 mi West 9.2 mph - N/A   Clear
6:15 PM 50.9 °F - 27.7 °F 41% 30.04 in 10.0 mi WSW 8.1 mph - N/A   Scattered Clouds
6:35 PM 52.5 °F - 26.8 °F 37% 30.04 in 10.0 mi SW 5.8 mph - N/A   Scattered Clouds
6:55 PM 51.8 °F - 27.1 °F 39% 30.04 in 10.0 mi West 8.1 mph - N/A   Clear
7:15 PM 50.9 °F - 24.4 °F 36% 30.05 in 10.0 mi WNW 9.2 mph - N/A   Clear
7:35 PM 48.7 °F - 25.9 °F 41% 30.05 in 10.0 mi WNW 4.6 mph - N/A   Clear
7:55 PM 45.9 °F 42.9 °F 26.6 °F 47% 30.05 in 10.0 mi WNW 5.8 mph - N/A   Clear
8:15 PM 42.8 °F 40.1 °F 26.6 °F 53% 30.05 in 10.0 mi WNW 4.6 mph - N/A   Clear
8:35 PM 41.4 °F 36.8 °F 25.7 °F 54% 30.05 in 10.0 mi West 6.9 mph - N/A   Clear
8:55 PM 41.5 °F 37.8 °F 24.4 °F 51% 30.06 in 10.0 mi West 5.8 mph - N/A   Clear
9:15 PM 40.8 °F 36.9 °F 24.4 °F 52% 30.06 in 10.0 mi West 5.8 mph - N/A   Clear
9:35 PM 40.5 °F 37.3 °F 23.5 °F 51% 30.06 in 10.0 mi West 4.6 mph - N/A   Clear
9:55 PM 37.8 °F 34.2 °F 23.4 °F 56% 30.05 in 10.0 mi West 4.6 mph - N/A   Clear
10:15 PM 38.5 °F 35.0 °F 23.0 °F 54% 30.06 in 10.0 mi West 4.6 mph - N/A   Clear
10:35 PM 37.8 °F 35.3 °F 23.0 °F 55% 30.06 in 10.0 mi West 3.5 mph - N/A   Clear
10:55 PM 33.1 °F 30.0 °F 22.8 °F 66% 30.05 in 10.0 mi West 3.5 mph - N/A   Clear
11:15 PM 33.6 °F - 23.4 °F 66% 30.05 in 10.0 mi Calm Calm - N/A   Clear
11:35 PM 34.9 °F 32.0 °F 23.4 °F 63% 30.04 in 10.0 mi SW 3.5 mph - N/A   Clear
11:55 PM 36.7 °F 32.9 °F 23.5 °F 59% 30.04 in 10.0 mi SSW 4.6 mph - N/A   Clear